Williamtown, Australia

10:59 AM AEDT on November 21, 2017 (GMT +1100)
Williamtown Military

Weather History for YWLM - January, 2014

Change the Weather History Date:

Saturday, January 4, 2014

  Actual Average Record
Temperature  
Mean Temperature 74 °F -  
Max Temperature 78 °F - - ()
Min Temperature 69 °F - - ()
Cooling Degree Days 8    
Growing Degree Days 24 (Base 50)    
Moisture  
Dew Point 66 °F    
Average Humidity 77    
Maximum Humidity 100    
Minimum Humidity 49    
Precipitation  
Precipitation 0.00 in - - ()
Sea Level Pressure  
Sea Level Pressure 29.58 in    
Wind  
Wind Speed 11 mph ()    
Max Wind Speed 21 mph    
Max Gust Speed 31 mph    
Visibility 5.6 miles    
Events      
T = Trace of Precipitation, MM = Missing Value Source: Averaged Metar Reports

Daily Weather History Graph

Daily Weather History Graph

Search for Another Location

Airport or City:

Trip Planner

Search our weather history database for the weather conditions in past years. The results will help you decide how hot, cold, wet, or windy it might be!

Date:

Astronomy

Jan. 04, 2014 Rise Set
Actual Time 5:50 AM AEDT 8:04 PM AEDT
Civil Twilight 5:21 AM AEDT 8:32 PM AEDT
Nautical Twilight 4:46 AM AEDT 9:07 PM AEDT
Astronomical Twilight 4:09 AM AEDT 9:45 PM AEDT
Moon 8:47 AM AEDT (1/4) 10:05 PM AEDT (1/4)
Length of Visible Light 15h 11m
Length of Day
14h 14m
Waxing Crescent, 10% of the Moon is Illuminated
Jan 4
Waxing Crescent
Jan 8
First Quarter
Jan 16
Full
Jan 24
Last Quarter
Jan 31
New

Hourly Weather History & Observations

Time (AEDT) Temp. Dew Point Humidity Pressure Visibility Wind Dir Wind Speed Gust Speed Precip Events Conditions
12:00 AM 74 °F 72 °F 93% 29.45 in 4 mi SW 8.1 mph - -   Overcast
12:00 AM 73.4 °F 71.6 °F 94% 29.44 in 4.3 mi SW 8.1 mph - N/A   Overcast
12:13 AM 75.2 °F 71.6 °F 89% 29.44 in 3.7 mi SW 9.2 mph - N/A   Overcast
12:30 AM 75.2 °F 71.6 °F 89% 29.44 in 3.7 mi SW 9.2 mph - N/A   Overcast
1:00 AM 75.2 °F 71.6 °F 89% 29.44 in 3.7 mi SW 10.4 mph - N/A   Overcast
1:22 AM 73.4 °F 73.4 °F 100% 29.44 in 3.7 mi WSW 8.1 mph - N/A   Overcast
1:30 AM 73.4 °F 71.6 °F 94% 29.42 in 3.7 mi West 8.1 mph - N/A   Overcast
1:42 AM 73.4 °F 71.6 °F 94% 29.42 in 4.3 mi WSW 9.2 mph - N/A   Overcast
2:00 AM 73 °F 71 °F 92% 29.44 in - WSW 9.2 mph - -  
2:00 AM 73.4 °F 71.6 °F 94% 29.42 in 5.0 mi WSW 9.2 mph - N/A   Overcast
2:22 AM 73.4 °F 71.6 °F 94% 29.42 in 4.3 mi West 4.6 mph - N/A   Scattered Clouds
3:00 AM 72 °F 70 °F 92% 29.44 in 4 mi West 5.8 mph - -  
3:00 AM 71.6 °F 69.8 °F 94% 29.42 in 4.3 mi West 5.8 mph - N/A   Unknown
3:02 AM 71.6 °F 69.8 °F 94% 29.42 in 4.3 mi West 5.8 mph - N/A   Unknown
3:30 AM 71.6 °F 69.8 °F 94% 29.42 in 5.0 mi West 8.1 mph - N/A   Unknown
4:00 AM 71.6 °F 69.8 °F 94% 29.44 in 5.0 mi West 8.1 mph - N/A   Unknown
4:29 AM 71.6 °F 69.8 °F 94% 29.47 in 3.7 mi WSW 6.9 mph - N/A   Scattered Clouds
4:30 AM 71.6 °F 69.8 °F 94% 29.47 in 3.7 mi SW 6.9 mph - N/A   Scattered Clouds
4:44 AM 71.6 °F 69.8 °F 94% 29.47 in 6.2 mi SSW 18.4 mph - N/A   Mostly Cloudy
5:00 AM 71 °F 67 °F 83% 29.50 in - SSW 20.7 mph - -  
5:00 AM 71.6 °F 66.2 °F 83% 29.50 in 6.2 mi SSW 20.7 mph - N/A   Mostly Cloudy
5:04 AM 71.6 °F 66.2 °F 83% 29.50 in 6.2 mi SSW 19.6 mph 31.1 mph N/A   Mostly Cloudy
5:20 AM 71.6 °F 66.2 °F 83% 29.50 in 6.2 mi SSW 15.0 mph - N/A   Scattered Clouds
5:27 AM 71.6 °F 66.2 °F 83% 29.50 in 6.2 mi SSW 15.0 mph - N/A   Mostly Cloudy
5:30 AM 71.6 °F 66.2 °F 83% 29.50 in 6.2 mi SSW 15.0 mph - N/A   Mostly Cloudy
6:00 AM 71 °F 66 °F 80% 29.54 in - SSW 13.8 mph - -  
6:00 AM 71.6 °F 66.2 °F 83% 29.53 in 6.2 mi SSW 13.8 mph - N/A   Mostly Cloudy
6:26 AM 71.6 °F 66.2 °F 83% 29.53 in 6.2 mi SSW 12.7 mph - N/A   Scattered Clouds
6:30 AM 71.6 °F 66.2 °F 83% 29.53 in 6.2 mi South 11.5 mph - N/A   Scattered Clouds
7:03 AM 71.6 °F 66.2 °F 83% 29.56 in 6.2 mi SSW 16.1 mph - N/A   Mostly Cloudy
7:27 AM 71.6 °F 66.2 °F 83% 29.59 in 6.2 mi SSW 17.3 mph 29.9 mph N/A   Overcast
7:30 AM 71.6 °F 66.2 °F 83% 29.59 in 6.2 mi SSW 18.4 mph 29.9 mph N/A   Overcast
8:00 AM 73 °F 66 °F 73% 29.60 in - SSW 19.6 mph - -  
8:00 AM 73.4 °F 66.2 °F 78% 29.59 in 6.2 mi SSW 19.6 mph - N/A   Overcast
8:20 AM 73.4 °F 66.2 °F 78% 29.59 in 6.2 mi SSW 18.4 mph - N/A   Overcast
8:27 AM 73.4 °F 66.2 °F 78% 29.59 in 6.2 mi SSW 15.0 mph - N/A   Overcast
8:30 AM 73.4 °F 66.2 °F 78% 29.62 in 6.2 mi SSW 15.0 mph - N/A   Overcast
9:00 AM 73 °F 66 °F 73% 29.63 in - South 16.1 mph - -   Overcast
9:00 AM 73.4 °F 66.2 °F 78% 29.62 in 6.2 mi South 16.1 mph - N/A   Overcast
9:30 AM 73.4 °F 66.2 °F 78% 29.62 in - South 13.8 mph - N/A   Overcast
10:00 AM 73.4 °F 66.2 °F 78% 29.62 in - South 13.8 mph - N/A   Overcast
10:30 AM 75.2 °F 66.2 °F 73% 29.62 in - South 15.0 mph - N/A   Overcast
11:00 AM 75 °F 65 °F 65% 29.65 in - South 15.0 mph - -  
11:00 AM 75.2 °F 66.2 °F 73% 29.62 in - South 15.0 mph - N/A   Mostly Cloudy
11:12 AM 75.2 °F 66.2 °F 73% 29.62 in - SE 13.8 mph - N/A   Mostly Cloudy
11:24 AM 77.0 °F 64.4 °F 65% 29.62 in - South 15.0 mph - N/A   Mostly Cloudy
11:30 AM 75.2 °F 66.2 °F 73% 29.62 in - South 15.0 mph - N/A   Mostly Cloudy
12:00 PM 74 °F 64 °F 65% 29.64 in - SSE 13.8 mph - -   Overcast
12:00 PM 75.2 °F 64.4 °F 69% 29.62 in - SSE 13.8 mph - N/A   Overcast
12:30 PM 77.0 °F 64.4 °F 65% 29.62 in - SSE 15.0 mph - N/A   Overcast
1:00 PM 77.0 °F 62.6 °F 61% 29.62 in 6.2 mi SSE 15.0 mph - N/A   Scattered Clouds
1:30 PM 75.2 °F 62.6 °F 65% 29.62 in 6.2 mi SSE 15.0 mph - N/A   Mostly Cloudy
2:00 PM 78 °F 62 °F 49% 29.62 in - SE 13.8 mph - -  
2:00 PM 77.0 °F 62.6 °F 61% 29.59 in 6.2 mi SE 13.8 mph - N/A   Mostly Cloudy
2:30 PM 77.0 °F 64.4 °F 65% 29.59 in 6.2 mi ESE 17.3 mph - N/A   Mostly Cloudy
3:00 PM 76 °F 63 °F 56% 29.60 in - ESE 16.1 mph - -  
3:00 PM 77.0 °F 62.6 °F 61% 29.59 in 6.2 mi ESE 16.1 mph - N/A   Mostly Cloudy
3:30 PM 75.2 °F 62.6 °F 65% 29.59 in 6.2 mi ESE 17.3 mph - N/A   Scattered Clouds
4:00 PM 77.0 °F 62.6 °F 61% 29.59 in 6.2 mi SE 17.3 mph - N/A   Scattered Clouds
4:30 PM 77.0 °F 62.6 °F 61% 29.59 in 6.2 mi ESE 15.0 mph - N/A   Unknown
5:00 PM 76 °F 61 °F 51% 29.62 in - East 12.7 mph - -  
5:00 PM 75.2 °F 60.8 °F 61% 29.59 in 6.2 mi East 12.7 mph - N/A   Unknown
5:30 PM 75.2 °F 62.6 °F 65% 29.59 in 6.2 mi East 15.0 mph - N/A   Scattered Clouds
6:00 PM 75 °F 62 °F 54% 29.63 in - East 13.8 mph - -  
6:00 PM 75.2 °F 62.6 °F 65% 29.62 in 6.2 mi East 13.8 mph - N/A   Scattered Clouds
6:30 PM 75.2 °F 62.6 °F 65% 29.65 in 6.2 mi ESE 12.7 mph - N/A   Unknown
7:00 PM 73.4 °F 62.6 °F 69% 29.65 in 6.2 mi ENE 11.5 mph - N/A   Scattered Clouds
7:30 PM 73.4 °F 62.6 °F 69% 29.68 in 6.2 mi ENE 10.4 mph - N/A   Mostly Cloudy
8:00 PM 72 °F 63 °F 66% 29.71 in - East 9.2 mph - -  
8:00 PM 71.6 °F 62.6 °F 73% 29.71 in 6.2 mi East 9.2 mph - N/A   Scattered Clouds
8:30 PM 71.6 °F 64.4 °F 78% 29.71 in 6.2 mi East 8.1 mph - N/A   Unknown
9:00 PM 70 °F 64 °F 74% 29.74 in - East 8.1 mph - -  
9:00 PM 69.8 °F 64.4 °F 83% 29.74 in 6.2 mi East 8.1 mph - N/A   Unknown
9:30 PM 69.8 °F 62.6 °F 78% 29.74 in 6.2 mi ESE 8.1 mph - N/A   Mostly Cloudy
10:00 PM 69.8 °F 62.6 °F 78% 29.74 in 6.2 mi East 8.1 mph - N/A   Overcast
10:30 PM 71.6 °F 64.4 °F 78% 29.77 in 6.2 mi ESE 8.1 mph - N/A   Overcast
11:00 PM 71 °F 64 °F 72% 29.78 in - ESE 8.1 mph - -  
11:00 PM 71.6 °F 64.4 °F 78% 29.77 in 6.2 mi ESE 8.1 mph - N/A   Overcast
11:30 PM 71.6 °F 64.4 °F 78% 29.77 in 6.2 mi East 8.1 mph - N/A   Overcast